Flag for Tajikistan Weather past 2 weeks in Dushanbe, Tajikistan

Now
68 °F

Partly sunny.


Feels Like: 68 °F
Forecast: 53 / 67 °F
Wind: No wind

Location: Dushanbe Airport

Current Time: May 23, 2015 at 9:24:43 AM

Latest Report: May 23, 2015 at 8:30 AM


Visibility: N/A

Pressure: 29.95 "Hg

Humidity: 60%

Dew point: 54 °F

Location of DushanbeLocation

Historic Weather in Dushanbe — Graph

°F

Dushanbe temperature yesterday

Maximum temperature yesterday: 77 °F (at 3:00 PM)
Minimum temperature yesterday: 61 °F (at 5:00 AM)
Average temperature yesterday: 68 °F

Past Weeks' High & Low Weather Summary

 TemperatureHumidityPressure
High90 °F (May 15, 3:00 PM)100% (May 13, 2:30 AM)30.09 "Hg (May 13, 2:30 AM)
Low54 °F (May 20, 4:30 AM)15% (May 20, 2:00 PM)29.71 "Hg (May 8, 3:30 PM)
Average69 °F62%29.96 "Hg
* Reported May 8 8:00 AM — May 23 8:00 AM, Dushanbe, Weather by CustomWeather, © 2015

Note: Actual official high and low records may vary slightly from our data, if they occured in-between our weather recording intervals... More about our weather records

Advertising

Dushanbe weather history for previous 24 hours

 ConditionsComfort  
Time TempWeatherWind HumidityBarometerVisibility
8:00 AM
Sat, May 23
66 °FScattered clouds.1 mph60%29.95 "HgN/A
7:30 AM63 °FPartly sunny.1 mph68%29.95 "HgN/A
7:00 AM63 °FPartly sunny.No wind68%29.95 "HgN/A
6:30 AM61 °FPartly sunny.No wind77%29.95 "HgN/A
6:00 AM61 °FPartly sunny.1 mph72%29.95 "HgN/A
5:30 AM59 °FScattered clouds.3 mph77%29.95 "HgN/A
5:00 AM57 °FPassing clouds.3 mph77%29.92 "HgN/A
4:30 AM57 °FPassing clouds.3 mph77%29.92 "HgN/A
4:00 AM57 °FPassing clouds.3 mph82%29.92 "HgN/A
3:30 AM59 °FPassing clouds.1 mph77%29.92 "HgN/A
3:00 AM59 °FPassing clouds.1 mph77%29.95 "HgN/A
2:30 AM59 °FPassing clouds.1 mph82%29.95 "HgN/A
2:00 AM59 °FPassing clouds.No wind77%29.95 "HgN/A
1:30 AM59 °FPassing clouds.No wind77%29.95 "HgN/A
1:00 AM61 °FPassing clouds.1 mph77%29.95 "HgN/A
12:30 AM61 °FPassing clouds.3 mph77%29.98 "HgN/A
12:00 AM63 °FPassing clouds.1 mph68%29.98 "HgN/A
11:30 PM
Fri, May 22
64 °FPassing clouds.6 mph64%29.98 "HgN/A
11:00 PM64 °FPassing clouds.1 mph64%29.98 "HgN/A
10:30 PM64 °FPassing clouds.6 mph64%29.98 "HgN/A
10:00 PM64 °FPassing clouds.6 mph68%29.98 "HgN/A
9:30 PM63 °FPassing clouds.6 mph77%29.98 "HgN/A
9:00 PM63 °FPassing clouds.8 mph77%29.98 "HgN/A
8:30 PM66 °FPassing clouds.8 mph68%29.98 "HgN/A
8:00 PM66 °FPassing clouds.10 mph68%29.95 "HgN/A
7:30 PM68 °FPassing clouds.8 mph69%29.95 "HgN/A
7:00 PM70 °FPassing clouds.8 mph64%29.95 "HgN/A
6:30 PM72 °FPassing clouds.8 mph61%29.95 "HgN/A
6:00 PM73 °FPassing clouds.8 mph57%29.95 "HgN/A
5:30 PM75 °FPassing clouds.8 mph50%29.95 "HgN/A
5:00 PM75 °FPassing clouds.10 mph50%29.95 "HgN/A
4:30 PM75 °FPassing clouds.10 mph47%29.95 "HgN/A
4:00 PM77 °FPassing clouds.10 mph42%29.95 "HgN/A
3:30 PM77 °FPassing clouds.10 mph47%29.98 "HgN/A
3:00 PM77 °FPassing clouds.13 mph51%29.98 "HgN/A
2:30 PM73 °FScattered clouds.13 mph53%29.98 "HgN/A
2:00 PM73 °FScattered clouds.13 mph57%29.98 "HgN/A
1:30 PM72 °FScattered clouds.13 mph65%29.98 "HgN/A
1:00 PM70 °FBroken clouds.13 mph73%30.01 "HgN/A
12:30 PM68 °FBroken clouds.13 mph73%30.01 "HgN/A
12:00 PM66 °FSprinkles. Broken clouds.8 mph78%30.01 "HgN/A
11:30 AM68 °FBroken clouds.8 mph69%30.01 "HgN/A
11:00 AM66 °FSprinkles. More clouds than sun.3 mph73%30.04 "HgN/A
10:30 AM64 °FSprinkles. More clouds than sun.6 mph78%30.04 "HgN/A
10:00 AM66 °FSprinkles. Cloudy.6 mph73%30.01 "HgN/A
9:30 AM70 °FBroken clouds.1 mph57%29.95 "HgN/A
9:00 AM70 °FBroken clouds.6 mph60%29.95 "HgN/A
Weather by CustomWeather, © 2015

See weather overviewHow to use our weather pages